When you browse on this site, cookies collect data to enhance your experience and personalize the content and advertising you see.
Visit our Privacy Policy to learn more. By continuing to use the site, you agree to this use of cookies and data.
  • In Spain
  • List of Countries
  • For 7 days
  • Water Temperature
  • Weather Map
  • Weather Widgets
  • user-avatar
    Login

    Hourly Weather Artashat

    Today, 6 June, Saturday

    Time Temperature Precipitation Wind Pressure Humidity
    00:00 +12°C° 0 mm 2 mps 604 mmHg 41%
    01:00 +10°C° 0 mm 2 mps 604 mmHg 43%
    02:00 +11°C° 0 mm 1 mps 603 mmHg 45%
    03:00 +10°C° 0 mm 1 mps 603 mmHg 47%
    04:00 +11°C° 0 mm 1 mps 604 mmHg 48%
    05:00 +12°C° 0 mm 1 mps 605 mmHg 49%
    06:00 +13°C° 0 mm 1 mps 605 mmHg 50%
    07:00 +14°C° 0 mm 1 mps 606 mmHg 45%
    08:00 +16°C° 0 mm 1 mps 606 mmHg 41%
    09:00 +17°C° 0 mm 2 mps 607 mmHg 36%
    10:00 +18°C° 0 mm 2 mps 607 mmHg 34%
    11:00 +19°C° 0 mm 2 mps 607 mmHg 31%
    12:00 +20°C° 0 mm 2 mps 607 mmHg 29%
    13:00 +20°C° 0.1 mm 2 mps 607 mmHg 27%
    14:00 +21°C° 0.1 mm 2 mps 607 mmHg 26%
    15:00 +21°C° 0.1 mm 2 mps 607 mmHg 24%
    16:00 +21°C° 0 mm 3 mps 607 mmHg 25%
    17:00 +20°C° 0 mm 3 mps 607 mmHg 26%
    18:00 +20°C° 0 mm 3 mps 606 mmHg 27%
    19:00 +18°C° 0 mm 2 mps 606 mmHg 34%
    20:00 +16°C° 0 mm 2 mps 605 mmHg 40%
    21:00 +14°C° 0 mm 1 mps 605 mmHg 47%
    22:00 +13°C° 0 mm 1 mps 605 mmHg 49%
    23:00 +12°C° 0 mm 1 mps 605 mmHg 51%

    Tomorrow, 7 June, Sunday

    Time Temperature Precipitation Wind Pressure Humidity
    00:00 +11°C° 0 mm 0 mps 604 mmHg 52%
    01:00 +10°C° 0 mm 0 mps 604 mmHg 53%
    02:00 +10°C° 0 mm 0 mps 604 mmHg 55%
    03:00 +9°C° 0 mm 0 mps 604 mmHg 56%
    04:00 +10°C° 0 mm 0 mps 604 mmHg 56%
    05:00 +11°C° 0 mm 0 mps 605 mmHg 55%
    06:00 +12°C° 0 mm 0 mps 605 mmHg 55%
    07:00 +14°C° 0 mm 1 mps 606 mmHg 51%
    08:00 +16°C° 0 mm 1 mps 606 mmHg 46%
    09:00 +17°C° 0 mm 2 mps 606 mmHg 42%
    10:00 +18°C° 0 mm 2 mps 606 mmHg 39%
    11:00 +19°C° 0 mm 2 mps 606 mmHg 35%
    12:00 +20°C° 0 mm 2 mps 607 mmHg 32%
    13:00 +21°C° 0 mm 2 mps 606 mmHg 30%
    14:00 +21°C° 0 mm 3 mps 606 mmHg 28%
    15:00 +22°C° 0 mm 3 mps 606 mmHg 26%
    16:00 +21°C° 0 mm 3 mps 606 mmHg 27%
    17:00 +21°C° 0 mm 2 mps 606 mmHg 28%
    18:00 +21°C° 0 mm 2 mps 605 mmHg 29%
    19:00 +19°C° 0 mm 2 mps 605 mmHg 33%
    20:00 +18°C° 0 mm 1 mps 604 mmHg 38%
    21:00 +15°C° 0 mm 1 mps 604 mmHg 43%
    22:00 +14°C° 0 mm 1 mps 603 mmHg 45%
    23:00 +14°C° 0 mm 1 mps 603 mmHg 47%

    Day after tomorrow, 8 June, Monday

    Time Temperature Precipitation Wind Pressure Humidity
    00:00 +13°C° 0 mm 1 mps 603 mmHg 49%
    01:00 +11°C° 0 mm 0 mps 603 mmHg 52%
    02:00 +11°C° 0 mm 0 mps 602 mmHg 55%
    03:00 +10°C° 0 mm 0 mps 602 mmHg 58%
    04:00 +11°C° 0 mm 0 mps 602 mmHg 58%
    05:00 +12°C° 0 mm 0 mps 603 mmHg 58%
    06:00 +14°C° 0 mm 0 mps 603 mmHg 58%
    07:00 +16°C° 0 mm 1 mps 604 mmHg 52%
    08:00 +18°C° 0 mm 1 mps 604 mmHg 45%
    09:00 +19°C° 0 mm 2 mps 604 mmHg 39%
    10:00 +20°C° 0 mm 2 mps 605 mmHg 35%
    11:00 +21°C° 0 mm 2 mps 605 mmHg 31%
    12:00 +22°C° 0 mm 3 mps 605 mmHg 27%
    13:00 +24°C° 0 mm 3 mps 605 mmHg 25%
    14:00 +24°C° 0 mm 3 mps 605 mmHg 23%
    15:00 +24°C° 0 mm 3 mps 605 mmHg 21%
    16:00 +24°C° 0 mm 3 mps 604 mmHg 22%
    17:00 +24°C° 0 mm 2 mps 604 mmHg 23%
    18:00 +23°C° 0 mm 2 mps 604 mmHg 25%
    19:00 +20°C° 0 mm 2 mps 603 mmHg 27%
    20:00 +19°C° 0 mm 1 mps 603 mmHg 30%
    21:00 +16°C° 0 mm 1 mps 602 mmHg 33%
    22:00 +15°C° 0 mm 1 mps 602 mmHg 36%
    23:00 +14°C° 0 mm 1 mps 602 mmHg 38%

    9 June, Tuesday

    Time Temperature Precipitation Wind Pressure Humidity
    00:00 +13°C° 0 mm 0 mps 601 mmHg 41%
    01:00 +12°C° 0 mm 0 mps 601 mmHg 44%
    02:00 +12°C° 0 mm 0 mps 601 mmHg 46%
    03:00 +11°C° 0 mm 0 mps 600 mmHg 49%
    04:00 +12°C° 0 mm 0 mps 601 mmHg 50%
    05:00 +14°C° 0 mm 0 mps 602 mmHg 51%
    06:00 +15°C° 0 mm 0 mps 603 mmHg 51%
    07:00 +18°C° 0 mm 1 mps 603 mmHg 46%
    08:00 +20°C° 0 mm 1 mps 604 mmHg 41%
    09:00 +20°C° 0 mm 2 mps 604 mmHg 36%
    10:00 +21°C° 0 mm 2 mps 605 mmHg 33%
    11:00 +23°C° 0 mm 2 mps 605 mmHg 31%
    12:00 +24°C° 0 mm 2 mps 605 mmHg 29%
    13:00 +25°C° 0 mm 3 mps 605 mmHg 28%
    14:00 +25°C° 0 mm 3 mps 605 mmHg 28%
    15:00 +26°C° 0 mm 3 mps 604 mmHg 27%
    16:00 +22°C° 0.7 mm 3 mps 604 mmHg 39%
    17:00 +19°C° 0.7 mm 4 mps 603 mmHg 50%
    18:00 +15°C° 0.7 mm 4 mps 602 mmHg 62%
    19:00 +16°C° 0.2 mm 3 mps 603 mmHg 64%
    20:00 +14°C° 0.2 mm 3 mps 603 mmHg 67%
    21:00 +14°C° 0.2 mm 2 mps 604 mmHg 69%
    22:00 +14°C° 0 mm 2 mps 604 mmHg 69%
    23:00 +14°C° 0 mm 2 mps 604 mmHg 70%

    10 June, Wednesday

    Time Temperature Precipitation Wind Pressure Humidity
    00:00 +14°C° 0 mm 1 mps 603 mmHg 70%
    01:00 +13°C° 0 mm 1 mps 603 mmHg 72%
    02:00 +13°C° 0 mm 1 mps 603 mmHg 73%
    03:00 +12°C° 0 mm 1 mps 602 mmHg 75%
    04:00 +12°C° 0 mm 0 mps 603 mmHg 72%
    05:00 +12°C° 0 mm 0 mps 603 mmHg 69%
    06:00 +13°C° 0 mm 0 mps 603 mmHg 66%
    07:00 +14°C° 0 mm 0 mps 604 mmHg 62%
    08:00 +18°C° 0 mm 1 mps 604 mmHg 58%
    09:00 +19°C° 0 mm 1 mps 605 mmHg 54%
    10:00 +20°C° 0.1 mm 1 mps 605 mmHg 49%
    11:00 +21°C° 0.1 mm 2 mps 606 mmHg 45%
    12:00 +23°C° 0.1 mm 2 mps 606 mmHg 41%
    13:00 +23°C° 0.2 mm 2 mps 606 mmHg 40%
    14:00 +24°C° 0.2 mm 2 mps 606 mmHg 38%
    15:00 +24°C° 0.2 mm 3 mps 606 mmHg 37%
    16:00 +23°C° 0.3 mm 2 mps 605 mmHg 40%
    17:00 +21°C° 0.3 mm 2 mps 605 mmHg 43%
    18:00 +20°C° 0.3 mm 2 mps 605 mmHg 46%
    19:00 +19°C° 0.2 mm 2 mps 605 mmHg 51%
    20:00 +19°C° 0.2 mm 1 mps 605 mmHg 56%
    21:00 +16°C° 0.2 mm 1 mps 604 mmHg 61%
    22:00 +16°C° 0 mm 1 mps 604 mmHg 62%
    23:00 +15°C° 0 mm 1 mps 604 mmHg 63%

    11 June, Thursday

    Time Temperature Precipitation Wind Pressure Humidity
    00:00 +15°C° 0 mm 1 mps 604 mmHg 64%
    01:00 +13°C° 0 mm 0 mps 603 mmHg 64%
    02:00 +13°C° 0 mm 0 mps 603 mmHg 65%
    03:00 +12°C° 0 mm 0 mps 602 mmHg 65%
    04:00 +13°C° 0 mm 0 mps 603 mmHg 64%
    05:00 +14°C° 0 mm 0 mps 603 mmHg 63%
    06:00 +15°C° 0 mm 0 mps 604 mmHg 62%
    07:00 +19°C° 0 mm 1 mps 604 mmHg 56%
    08:00 +20°C° 0 mm 1 mps 604 mmHg 51%
    09:00 +20°C° 0 mm 2 mps 605 mmHg 46%
    10:00 +21°C° 0 mm 3 mps 605 mmHg 43%
    11:00 +24°C° 0 mm 3 mps 605 mmHg 40%
    12:00 +25°C° 0 mm 3 mps 605 mmHg 37%
    13:00 +25°C° 0.2 mm 3 mps 605 mmHg 37%
    14:00 +24°C° 0.2 mm 3 mps 605 mmHg 37%
    15:00 +24°C° 0.2 mm 3 mps 604 mmHg 36%
    16:00 +21°C° 1.3 mm 4 mps 604 mmHg 45%
    17:00 +17°C° 1.3 mm 5 mps 603 mmHg 54%
    18:00 +14°C° 1.3 mm 5 mps 602 mmHg 62%
    19:00 +14°C° 0.3 mm 4 mps 603 mmHg 64%
    20:00 +14°C° 0.3 mm 3 mps 603 mmHg 66%
    21:00 +14°C° 0.3 mm 1 mps 603 mmHg 68%
    22:00 +14°C° 0 mm 1 mps 603 mmHg 69%
    23:00 +14°C° 0 mm 1 mps 603 mmHg 71%
    Show more